Time,TemperatureF,DewpointF,PressureIn,WindDirection,WindDirectionDegrees,WindSpeedMPH,WindSpeedGustMPH,Humidity,HourlyPrecipIn,Conditions,Clouds,dailyrainin,SoftwareType,DateUTC
2014-09-15 16:49:00,73.4,60.4,29.84,West,270,6.0,6.0,64,0.00,,,0.00,WUHU215HW,2014-09-15 23:49:00,
2014-09-15 16:50:00,73.2,60.2,29.84,WNW,295,3.6,6.2,64,0.00,,,0.00,WUHU215HW,2014-09-15 23:50:00,
2014-09-15 16:56:00,72.1,60.1,29.84,WSW,248,4.6,6.2,66,0.00,,,0.00,WUHU215HW,2014-09-15 23:56:00,
2014-09-15 17:01:00,72.1,59.6,29.84,SW,225,5.1,5.1,65,0.00,,,0.00,WUHU215HW,2014-09-16 00:01:00,
2014-09-15 17:06:00,71.6,60.0,29.84,WSW,248,4.4,5.3,67,0.00,,,0.00,WUHU215HW,2014-09-16 00:06:00,
2014-09-15 17:09:00,71.4,59.8,29.84,West,264,2.5,5.3,67,0.00,,,0.00,WUHU215HW,2014-09-16 00:09:00,
2014-09-15 17:14:00,71.2,60.1,29.84,NNW,341,3.7,5.3,68,0.00,,,0.00,WUHU215HW,2014-09-16 00:14:00,
2014-09-15 17:19:00,70.8,59.7,29.84,SW,225,2.6,6.2,68,0.00,,,0.00,WUHU215HW,2014-09-16 00:19:00,
2014-09-15 17:24:00,71.4,60.3,29.84,WSW,248,4.0,6.2,68,0.00,,,0.00,WUHU215HW,2014-09-16 00:24:00,
2014-09-15 17:29:00,71.9,60.3,29.85,WNW,297,4.9,6.0,67,0.00,,,0.00,WUHU215HW,2014-09-16 00:29:00,
2014-09-15 17:32:00,71.6,60.0,29.85,West,270,3.8,6.0,67,0.00,,,0.00,WUHU215HW,2014-09-16 00:32:00,
2014-09-15 17:37:00,71.2,60.1,29.85,West,270,5.3,6.0,68,0.00,,,0.00,WUHU215HW,2014-09-16 00:37:00,
2014-09-15 17:42:00,70.7,60.0,29.85,SW,225,4.0,7.1,69,0.00,,,0.00,WUHU215HW,2014-09-16 00:42:00,
2014-09-15 17:47:00,70.8,60.1,29.85,WSW,245,1.5,7.1,69,0.00,,,0.00,WUHU215HW,2014-09-16 00:47:00,
2014-09-15 17:52:00,71.0,60.3,29.84,West,270,0.0,4.9,69,0.00,,,0.00,WUHU215HW,2014-09-16 00:52:00,
2014-09-15 17:57:00,71.2,60.1,29.84,WNW,283,3.4,5.8,68,0.00,,,0.00,WUHU215HW,2014-09-16 00:57:00,
2014-09-15 18:02:00,70.5,59.8,29.85,WNW,293,3.8,5.8,69,0.00,,,0.00,WUHU215HW,2014-09-16 01:02:00,
2014-09-15 18:07:00,70.5,59.8,29.85,SW,225,4.9,4.9,69,0.00,,,0.00,WUHU215HW,2014-09-16 01:07:00,
2014-09-15 18:12:00,70.5,59.8,29.85,SW,225,5.1,5.1,69,0.00,,,0.00,WUHU215HW,2014-09-16 01:12:00,
2014-09-15 18:17:00,70.1,59.4,29.85,WSW,248,0.8,5.1,69,0.00,,,0.00,WUHU215HW,2014-09-16 01:17:00,
2014-09-15 18:22:00,69.6,59.3,29.85,WSW,248,3.1,5.1,70,0.00,,,0.00,WUHU215HW,2014-09-16 01:22:00,
2014-09-15 18:27:00,69.6,59.3,29.85,WSW,248,4.9,4.9,70,0.00,,,0.00,WUHU215HW,2014-09-16 01:27:00,
2014-09-15 18:32:00,69.2,59.0,29.85,West,270,2.0,4.9,70,0.00,,,0.00,WUHU215HW,2014-09-16 01:32:00,
2014-09-15 18:37:00,69.0,58.8,29.85,NNW,338,3.1,4.9,70,0.00,,,0.00,WUHU215HW,2014-09-16 01:37:00,
2014-09-15 18:42:00,68.7,58.9,29.85,WNW,291,3.1,3.5,71,0.00,,,0.00,WUHU215HW,2014-09-16 01:42:00,
2014-09-15 18:47:00,68.5,58.7,29.84,WSW,248,2.4,3.3,71,0.00,,,0.00,WUHU215HW,2014-09-16 01:47:00,
2014-09-15 18:52:00,67.8,58.1,29.85,WSW,248,0.0,2.4,71,0.00,,,0.00,WUHU215HW,2014-09-16 01:52:00,
2014-09-15 18:57:00,67.1,57.7,29.85,West,267,2.7,2.9,72,0.00,,,0.00,WUHU215HW,2014-09-16 01:57:00,
2014-09-15 19:02:00,66.9,57.9,29.85,WNW,293,0.0,2.9,73,0.00,,,0.00,WUHU215HW,2014-09-16 02:02:00,
2014-09-15 19:07:00,66.5,57.6,29.85,WNW,293,0.6,1.3,73,0.00,,,0.00,WUHU215HW,2014-09-16 02:07:00,
2014-09-15 19:12:00,66.0,57.4,29.85,SW,225,3.1,3.1,74,0.00,,,0.00,WUHU215HW,2014-09-16 02:12:00,
2014-09-15 19:15:00,66.0,57.4,29.85,SW,225,3.1,3.1,74,0.00,,,0.00,WUHU215HW,2014-09-16 02:15:00,
2014-09-15 19:20:00,65.8,57.2,29.85,NW,315,0.0,3.1,74,0.00,,,0.00,WUHU215HW,2014-09-16 02:20:00,
2014-09-15 19:25:00,65.4,56.9,29.85,WNW,293,5.1,5.1,74,0.00,,,0.00,WUHU215HW,2014-09-16 02:25:00,
2014-09-15 19:30:00,65.4,56.9,29.85,WSW,248,2.2,5.1,75,0.00,,,0.00,WUHU215HW,2014-09-16 02:30:00,
2014-09-15 19:35:00,65.3,57.1,29.85,WNW,293,1.5,5.1,75,0.00,,,0.00,WUHU215HW,2014-09-16 02:35:00,
2014-09-15 19:40:00,65.1,56.9,29.85,NW,315,3.5,3.5,75,0.00,,,0.00,WUHU215HW,2014-09-16 02:40:00,
2014-09-15 19:45:00,65.1,56.9,29.85,WNW,293,0.0,3.5,75,0.00,,,0.00,WUHU215HW,2014-09-16 02:45:00,
2014-09-15 19:50:00,64.9,56.8,29.85,SW,225,2.9,3.5,75,0.00,,,0.00,WUHU215HW,2014-09-16 02:50:00,
2014-09-15 19:55:00,64.9,56.8,29.85,WSW,248,0.6,2.9,76,0.00,,,0.00,WUHU215HW,2014-09-16 02:55:00,
2014-09-15 20:00:00,64.9,56.8,29.85,WSW,248,0.0,0.6,76,0.00,,,0.00,WUHU215HW,2014-09-16 03:00:00,
2014-09-15 20:05:00,64.7,57.0,29.86,WSW,248,0.0,0.6,76,0.00,,,0.00,WUHU215HW,2014-09-16 03:05:00,
2014-09-15 20:10:00,64.5,56.8,29.86,West,270,2.2,2.2,76,0.00,,,0.00,WUHU215HW,2014-09-16 03:10:00,
2014-09-15 20:15:00,64.5,56.8,29.86,WSW,248,0.6,2.2,76,0.00,,,0.00,WUHU215HW,2014-09-16 03:15:00,
2014-09-15 20:20:00,64.4,56.6,29.86,West,270,0.0,0.6,76,0.00,,,0.00,WUHU215HW,2014-09-16 03:20:00,
2014-09-15 20:25:00,64.2,56.4,29.86,West,270,0.0,0.0,76,0.00,,,0.00,WUHU215HW,2014-09-16 03:25:00,
2014-09-15 20:30:00,64.0,56.3,29.86,NW,315,0.0,0.0,76,0.00,,,0.00,WUHU215HW,2014-09-16 03:30:00,
2014-09-15 20:35:00,63.8,56.4,29.87,WNW,293,0.0,0.0,77,0.00,,,0.00,WUHU215HW,2014-09-16 03:35:00,
2014-09-15 20:40:00,63.8,56.4,29.87,SW,225,0.6,0.6,77,0.00,,,0.00,WUHU215HW,2014-09-16 03:40:00,
2014-09-15 20:46:00,63.6,56.3,29.87,WSW,250,2.2,2.9,77,0.00,,,0.00,WUHU215HW,2014-09-16 03:46:00,
2014-09-15 20:51:00,63.6,56.3,29.87,WNW,293,0.0,2.9,78,0.00,,,0.00,WUHU215HW,2014-09-16 03:51:00,
2014-09-15 20:56:00,63.5,56.4,29.87,WSW,248,1.1,1.1,78,0.00,,,0.00,WUHU215HW,2014-09-16 03:56:00,
2014-09-15 21:01:00,63.3,56.3,29.87,West,270,0.0,1.1,78,0.00,,,0.00,WUHU215HW,2014-09-16 04:01:00,
2014-09-15 21:06:00,63.3,56.3,29.87,West,270,0.0,1.1,78,0.00,,,0.00,WUHU215HW,2014-09-16 04:06:00,
2014-09-15 21:11:00,63.1,56.1,29.87,SW,225,0.0,0.0,78,0.00,,,0.00,WUHU215HW,2014-09-16 04:11:00,
2014-09-15 21:16:00,62.9,55.9,29.88,West,270,0.0,0.0,78,0.00,,,0.00,WUHU215HW,2014-09-16 04:16:00,
2014-09-15 21:21:00,62.9,55.9,29.88,SSE,158,0.0,0.0,78,0.00,,,0.00,WUHU215HW,2014-09-16 04:21:00,